Time,TemperatureF,DewpointF,PressureIn,WindDirection,WindDirectionDegrees,WindSpeedMPH,WindSpeedGustMPH,Humidity,HourlyPrecipIn,Conditions,Clouds,dailyrainin,SolarRadiationWatts/m^2,SoftwareType,DateUTC
2013-04-05 00:02:00,61.0,29.0,-100.00,WNW,296,24.0,53.0,29,0.00,,,0.00,0.000000,,2013-04-05 07:02:00,
2013-04-05 00:12:00,61.0,29.0,-100.00,WNW,296,24.0,53.0,29,0.00,,,0.00,0.000000,,2013-04-05 07:12:00,
2013-04-05 00:22:00,61.0,29.0,-100.00,WNW,296,24.0,53.0,29,0.00,,,0.00,0.000000,,2013-04-05 07:22:00,
2013-04-05 00:52:00,57.0,32.0,-100.00,West,267,17.0,42.0,39,0.00,,,0.00,0.000000,,2013-04-05 07:52:00,
2013-04-05 01:02:00,57.0,32.0,-100.00,West,267,17.0,42.0,39,0.00,,,0.00,0.000000,,2013-04-05 08:02:00,
2013-04-05 01:12:00,57.0,32.0,-100.00,West,267,17.0,42.0,39,0.00,,,0.00,0.000000,,2013-04-05 08:12:00,
2013-04-05 01:22:00,57.0,32.0,-100.00,West,267,17.0,42.0,39,0.00,,,0.00,0.000000,,2013-04-05 08:22:00,
2013-04-05 01:52:00,59.0,30.0,-100.00,WNW,297,23.0,50.0,33,0.00,,,0.00,0.000000,,2013-04-05 08:52:00,
2013-04-05 02:02:00,59.0,30.0,-100.00,WNW,297,23.0,50.0,33,0.00,,,0.00,0.000000,,2013-04-05 09:02:00,
2013-04-05 02:12:00,59.0,30.0,-100.00,WNW,297,23.0,50.0,33,0.00,,,0.00,0.000000,,2013-04-05 09:12:00,
2013-04-05 02:22:00,59.0,30.0,-100.00,WNW,297,23.0,50.0,33,0.00,,,0.00,0.000000,,2013-04-05 09:22:00,
2013-04-05 02:53:00,57.0,30.0,-100.00,NW,307,36.0,51.0,36,0.00,,,0.00,0.000000,,2013-04-05 09:53:00,
2013-04-05 03:02:00,57.0,30.0,-100.00,NW,307,36.0,51.0,36,0.00,,,0.00,0.000000,,2013-04-05 10:02:00,
2013-04-05 03:12:00,57.0,30.0,-100.00,NW,307,36.0,51.0,36,0.00,,,0.00,0.000000,,2013-04-05 10:12:00,
2013-04-05 03:23:00,57.0,30.0,-100.00,NW,307,36.0,51.0,36,0.00,,,0.00,0.000000,,2013-04-05 10:23:00,
2013-04-05 03:53:00,58.0,31.0,-100.00,NW,305,16.0,50.0,35,0.00,,,0.00,0.000000,,2013-04-05 10:53:00,
2013-04-05 04:02:00,58.0,31.0,-100.00,NW,305,16.0,50.0,35,0.00,,,0.00,0.000000,,2013-04-05 11:02:00,
2013-04-05 04:12:00,58.0,31.0,-100.00,NW,305,16.0,50.0,35,0.00,,,0.00,0.000000,,2013-04-05 11:12:00,
2013-04-05 04:21:00,58.0,31.0,-100.00,NW,305,16.0,50.0,35,0.00,,,0.00,0.000000,,2013-04-05 11:21:00,
2013-04-05 04:52:00,58.0,28.0,-100.00,WSW,251,7.0,28.0,32,0.00,,,0.00,0.000000,,2013-04-05 11:52:00,
2013-04-05 05:02:00,58.0,28.0,-100.00,WSW,251,7.0,28.0,32,0.00,,,0.00,0.000000,,2013-04-05 12:02:00,
2013-04-05 05:12:00,58.0,28.0,-100.00,WSW,251,7.0,28.0,32,0.00,,,0.00,0.000000,,2013-04-05 12:12:00,
2013-04-05 05:22:00,58.0,28.0,-100.00,WSW,251,7.0,28.0,32,0.00,,,0.00,0.000000,,2013-04-05 12:22:00,
2013-04-05 05:52:00,59.0,23.0,-100.00,WNW,303,17.0,31.0,25,0.00,,,0.00,0.000000,,2013-04-05 12:52:00,
2013-04-05 06:02:00,59.0,23.0,-100.00,WNW,303,17.0,31.0,25,0.00,,,0.00,0.000000,,2013-04-05 13:02:00,
2013-04-05 06:12:00,59.0,23.0,-100.00,WNW,303,17.0,31.0,25,0.00,,,0.00,0.000000,,2013-04-05 13:12:00,
2013-04-05 06:22:00,59.0,23.0,-100.00,WNW,303,17.0,31.0,25,0.00,,,0.00,0.000000,,2013-04-05 13:22:00,
2013-04-05 06:52:00,59.0,23.0,-100.00,NW,308,20.0,33.0,25,0.00,,,0.00,0.000000,,2013-04-05 13:52:00,
2013-04-05 07:12:00,59.0,23.0,-100.00,NW,308,20.0,33.0,25,0.00,,,0.00,0.000000,,2013-04-05 14:12:00,
2013-04-05 07:22:00,59.0,23.0,-100.00,NW,308,20.0,33.0,25,0.00,,,0.00,0.000000,,2013-04-05 14:22:00,
2013-04-05 07:53:00,59.0,27.0,-100.00,SSE,147,3.0,24.0,29,0.00,,,0.00,71.000000,,2013-04-05 14:53:00,
2013-04-05 08:02:00,59.0,27.0,-100.00,SSE,147,3.0,24.0,29,0.00,,,0.00,71.000000,,2013-04-05 15:02:00,
2013-04-05 08:12:00,59.0,27.0,-100.00,SSE,147,3.0,24.0,29,0.00,,,0.00,71.000000,,2013-04-05 15:12:00,
2013-04-05 08:22:00,59.0,27.0,-100.00,SSE,147,3.0,24.0,29,0.00,,,0.00,71.000000,,2013-04-05 15:22:00,
2013-04-05 08:53:00,67.0,26.0,-100.00,SSE,164,0.0,6.0,21,0.00,,,0.00,334.000000,,2013-04-05 15:53:00,
2013-04-05 09:53:00,65.0,28.0,-100.00,ESE,120,5.0,12.0,25,-99.99,,,0.00,623.000000,,2013-04-05 16:53:00,
2013-04-05 10:02:00,65.0,28.0,-100.00,ESE,120,5.0,12.0,25,-99.99,,,0.00,623.000000,,2013-04-05 17:02:00,
2013-04-05 10:12:00,65.0,28.0,-100.00,ESE,120,5.0,12.0,25,-99.99,,,0.00,623.000000,,2013-04-05 17:12:00,
2013-04-05 10:22:00,65.0,28.0,-100.00,ESE,120,5.0,12.0,25,-99.99,,,0.00,623.000000,,2013-04-05 17:22:00,
2013-04-05 10:52:00,67.0,27.0,-100.00,ESE,120,2.0,11.0,22,0.00,,,0.00,877.000000,,2013-04-05 17:52:00,
2013-04-05 11:02:00,67.0,27.0,-100.00,ESE,120,2.0,11.0,22,0.00,,,0.00,877.000000,,2013-04-05 18:02:00,
2013-04-05 11:12:00,67.0,27.0,-100.00,ESE,120,2.0,11.0,22,0.00,,,0.00,877.000000,,2013-04-05 18:12:00,
2013-04-05 11:22:00,67.0,27.0,-100.00,ESE,120,2.0,11.0,22,0.00,,,0.00,877.000000,,2013-04-05 18:22:00,
2013-04-05 11:52:00,70.0,25.0,-100.00,ESE,112,5.0,13.0,18,0.00,,,0.00,1077.000000,,2013-04-05 18:52:00,
2013-04-05 12:02:00,70.0,25.0,-100.00,ESE,112,5.0,13.0,18,0.00,,,0.00,1077.000000,,2013-04-05 19:02:00,
2013-04-05 12:13:00,70.0,25.0,-100.00,ESE,112,5.0,13.0,18,0.00,,,0.00,1077.000000,,2013-04-05 19:13:00,
2013-04-05 12:22:00,70.0,25.0,-100.00,ESE,112,5.0,13.0,18,0.00,,,0.00,1077.000000,,2013-04-05 19:22:00,
2013-04-05 12:52:00,71.0,18.0,-100.00,East,80,7.0,13.0,13,0.00,,,0.00,1188.000000,,2013-04-05 19:52:00,
2013-04-05 13:02:00,71.0,18.0,-100.00,East,80,7.0,13.0,13,0.00,,,0.00,1188.000000,,2013-04-05 20:02:00,
2013-04-05 13:11:00,71.0,18.0,-100.00,East,80,7.0,13.0,13,0.00,,,0.00,1188.000000,,2013-04-05 20:11:00,
2013-04-05 13:22:00,71.0,18.0,-100.00,East,80,7.0,13.0,13,0.00,,,0.00,1188.000000,,2013-04-05 20:22:00,
2013-04-05 13:52:00,73.0,23.0,-100.00,East,91,7.0,16.0,15,0.00,,,0.00,1209.000000,,2013-04-05 20:52:00,
2013-04-05 14:02:00,73.0,23.0,-100.00,East,91,7.0,16.0,15,0.00,,,0.00,1209.000000,,2013-04-05 21:02:00,
2013-04-05 14:12:00,73.0,23.0,-100.00,East,91,7.0,16.0,15,0.00,,,0.00,1209.000000,,2013-04-05 21:12:00,
2013-04-05 14:23:00,73.0,23.0,-100.00,East,91,7.0,16.0,15,0.00,,,0.00,1209.000000,,2013-04-05 21:23:00,
2013-04-05 14:54:00,74.0,28.0,-100.00,SSE,147,12.0,18.0,18,0.00,,,0.00,1130.000000,,2013-04-05 21:54:00,
2013-04-05 15:03:00,74.0,28.0,-100.00,SSE,147,12.0,18.0,18,0.00,,,0.00,1130.000000,,2013-04-05 22:03:00,
2013-04-05 15:12:00,74.0,28.0,-100.00,SSE,147,12.0,18.0,18,0.00,,,0.00,1130.000000,,2013-04-05 22:12:00,
2013-04-05 15:22:00,74.0,28.0,-100.00,SSE,147,12.0,18.0,18,0.00,,,0.00,1130.000000,,2013-04-05 22:22:00,
2013-04-05 15:53:00,75.0,32.0,-100.00,East,97,5.0,18.0,21,0.00,,,0.00,865.000000,,2013-04-05 22:53:00,
2013-04-05 16:02:00,75.0,32.0,-100.00,East,97,5.0,18.0,21,0.00,,,0.00,865.000000,,2013-04-05 23:02:00,
2013-04-05 16:12:00,75.0,32.0,-100.00,East,97,5.0,18.0,21,0.00,,,0.00,865.000000,,2013-04-05 23:12:00,
2013-04-05 16:22:00,75.0,32.0,-100.00,East,97,5.0,18.0,21,0.00,,,0.00,865.000000,,2013-04-05 23:22:00,
2013-04-05 16:53:00,69.0,35.0,-100.00,West,271,12.0,24.0,28,0.00,,,0.00,763.000000,,2013-04-05 23:53:00,
2013-04-05 17:02:00,69.0,35.0,-100.00,West,271,12.0,24.0,28,0.00,,,0.00,763.000000,,2013-04-06 00:02:00,
2013-04-05 17:12:00,69.0,35.0,-100.00,West,271,12.0,24.0,28,0.00,,,0.00,763.000000,,2013-04-06 00:12:00,
2013-04-05 17:22:00,69.0,35.0,-100.00,West,271,12.0,24.0,28,0.00,,,0.00,763.000000,,2013-04-06 00:22:00,
2013-04-05 17:52:00,64.0,33.0,-100.00,WNW,293,15.0,31.0,31,0.00,,,0.00,490.000000,,2013-04-06 00:52:00,
2013-04-05 18:02:00,64.0,33.0,-100.00,WNW,293,15.0,31.0,31,0.00,,,0.00,490.000000,,2013-04-06 01:02:00,
2013-04-05 18:12:00,64.0,33.0,-100.00,WNW,293,15.0,31.0,31,0.00,,,0.00,490.000000,,2013-04-06 01:12:00,
2013-04-05 18:22:00,64.0,33.0,-100.00,WNW,293,15.0,31.0,31,0.00,,,0.00,490.000000,,2013-04-06 01:22:00,
2013-04-05 18:53:00,66.0,25.0,-100.00,West,268,9.0,27.0,21,0.00,,,0.00,142.000000,,2013-04-06 01:53:00,
2013-04-05 19:02:00,66.0,25.0,-100.00,West,268,9.0,27.0,21,0.00,,,0.00,142.000000,,2013-04-06 02:02:00,
2013-04-05 19:52:00,65.0,25.0,-100.00,NW,304,11.0,27.0,22,0.00,,,0.00,38.000000,,2013-04-06 02:52:00,
2013-04-05 20:02:00,65.0,25.0,-100.00,NW,304,11.0,27.0,22,0.00,,,0.00,38.000000,,2013-04-06 03:02:00,
2013-04-05 20:12:00,65.0,25.0,-100.00,NW,304,11.0,27.0,22,0.00,,,0.00,38.000000,,2013-04-06 03:12:00,
2013-04-05 20:22:00,65.0,25.0,-100.00,NW,304,11.0,27.0,22,0.00,,,0.00,38.000000,,2013-04-06 03:22:00,
2013-04-05 20:54:00,62.0,23.0,-100.00,WNW,301,12.0,24.0,22,0.00,,,0.00,0.000000,,2013-04-06 03:54:00,
2013-04-05 21:03:00,62.0,23.0,-100.00,WNW,301,12.0,24.0,22,0.00,,,0.00,0.000000,,2013-04-06 04:03:00,
2013-04-05 21:53:00,63.0,24.0,-100.00,NW,306,13.0,29.0,22,0.00,,,0.00,0.000000,,2013-04-06 04:53:00,
2013-04-05 22:52:00,63.0,25.0,-100.00,WNW,293,11.0,28.0,23,0.00,,,0.00,0.000000,,2013-04-06 05:52:00,
2013-04-05 23:02:00,63.0,25.0,-100.00,WNW,293,11.0,28.0,23,0.00,,,0.00,0.000000,,2013-04-06 06:02:00,
2013-04-05 23:12:00,63.0,25.0,-100.00,WNW,293,11.0,28.0,23,0.00,,,0.00,0.000000,,2013-04-06 06:12:00,
2013-04-05 23:22:00,63.0,25.0,-100.00,WNW,293,11.0,28.0,23,0.00,,,0.00,0.000000,,2013-04-06 06:22:00,
2013-04-05 23:52:00,61.0,24.0,-100.00,NW,310,16.0,25.0,24,0.00,,,0.00,0.000000,,2013-04-06 06:52:00,